User: anonymous   Login
Location: Castelbiague
(43.0361°N, 0.9246°E)
Time: 05:17:37
(UTC+00:00)
Language:

OBJECT G - Orbit

View from above orbital plane
View from above orbital plane
View from above satellite
View from above satellite

Ground track
Ground track

The orbit data is extracted from the following two-line orbital elements,

1 43668U 18083G   22017.86891956  .00004208  00000-0  20252-3 0  9999
2 43668  97.4244  43.9639 0011531 131.1332 331.4096 15.19253346178470
Epoch (UTC): 17 January 2022 20:51:14
Eccentricity: 0.0011531
inclination: 97.4244°
perigee height: 500 km
apogee height: 516 km
right ascension of ascending node: 43.9639°
argument of perigee: 131.1332°
revolutions per day: 15.19253346
mean anomaly at epoch: 331.4096°
orbit number at epoch: 17847

The dashed part of the orbit path shows where the satellite is in the earth's shadow,  

DLR